TIANWANG 1B (TW-1B)
1 40927U 15051C   19340.38680649  .00009963  00000-0  13618-3 0  9994
2 40927  97.1173  25.5238 0009138 104.7697 319.4514 15.57592572236558
TIANWANG 1A (TW-1A)
1 40928U 15051D   19340.45262637  .00001958  00000-0  48378-4 0  9994
2 40928  97.1303   7.9104 0011161 163.4172 304.6702 15.41622905235471
LAPAN A2
1 40931U 15052B   19337.59853776  .00000317  00000-0 -44920-4 0  9998
2 40931   5.9991 299.1110 0012413   7.6203 352.6160 14.76621820226116
LQSAT
1 40958U 15057A   19340.46487500  .00000019  00000-0  10516-4 0  9992
2 40958  97.8805  44.8738 0019278  55.9963 304.3073 14.73099292223949
CHUBUSAT 2
1 41338U 16012B   19339.75924788 +.00000232 +00000-0 +11325-4 0  9997
2 41338 031.0020 143.9217 0013853 347.1018 012.9262 15.00216287208473
CHUBUSAT 3
1 41339U 16012C   19340.44089960  .00000199  00000-0  87006-5 0  9992
2 41339  31.0104 137.4651 0013789   1.0610 359.0079 15.00386856208571
OUFTI-1
1 41458U 16025C   19339.81393041 +.00002073 +00000-0 +10737-3 0  9993
2 41458 098.1007 075.3256 0166137 144.6323 216.6058 15.06279537198173
E-STAR-2
1 41459U 16025D   19340.33747116  .00002130  00000-0  11080-3 0  9995
2 41459  98.1009  75.4351 0167783 144.6544 216.5940 15.05892883198225
AAUSAT 4
1 41460U 16025E   19340.49034260  .00002564  00000-0  12958-3 0  9999
2 41460  98.0960  77.2914 0156866 135.0343 226.3716 15.07956128198403
NUSAT 1
1 41557U 16033B   19340.51167063  .00000864  00000-0  34719-4 0  9997
2 41557  97.4130  67.0022 0015034  58.3286 301.9417 15.27579659196164
BEESAT 4
1 41619U 16040W   19339.84739235 +.00001095 +00000-0 +48724-4 0  9992
2 41619 097.3477 038.7381 0012354 139.2122 221.0042 15.23516197179766
PRATHAM
1 41783U 16059A   19340.44541249  .00000033  00000-0  15565-4 0  9996
2 41783  98.0464  36.0583 0033081 204.9167 155.0440 14.63024613170518
ALSAT 1N
1 41789U 16059G   19340.42480494  .00000078  00000-0  23682-4 0  9992
2 41789  98.0483  38.4112 0028055 193.2358 166.8115 14.64281326170635
NAYIF 1
1 42017U 17008BX  19339.69459225 +.00001120 +00000-0 +46441-4 0  9994
2 42017 097.3854 044.8959 0004677 296.4282 063.6476 15.25951802155841
MAX VALIER SAT
1 42778U 17036P   19339.92527134 +.00000683 +00000-0 +32616-4 0  9992
2 42778 097.3337 033.6578 0011894 354.4598 005.6505 15.22285358136131
